TimeHST,TemperatureF,Dew PointF,Humidity,Sea Level PressureIn,VisibilityMPH,Wind Direction,Wind SpeedMPH,Gust SpeedMPH,PrecipitationIn,Events,Conditions,WindDirDegrees,DateUTC
12:54 AM,75.9,64.9,69,29.99,10.0,NE,13.8,-,N/A,,Clear,40,2013-09-19 10:54:00
1:54 AM,75.0,66.9,76,29.98,10.0,ENE,10.4,-,N/A,,Clear,60,2013-09-19 11:54:00
2:54 AM,75.9,66.9,74,29.98,10.0,NE,9.2,-,N/A,,Clear,50,2013-09-19 12:54:00
3:54 AM,75.0,66.9,76,29.97,10.0,ENE,6.9,-,N/A,,Clear,60,2013-09-19 13:54:00
4:54 AM,75.0,66.9,76,29.97,10.0,NE,9.2,-,N/A,,Clear,50,2013-09-19 14:54:00
5:54 AM,75.9,68.0,76,29.99,10.0,NE,9.2,-,N/A,,Scattered Clouds,50,2013-09-19 15:54:00
6:54 AM,75.0,68.0,79,30.01,10.0,NE,8.1,-,0.00,,Scattered Clouds,40,2013-09-19 16:54:00
7:54 AM,81.0,68.0,65,30.04,10.0,NE,10.4,-,N/A,,Scattered Clouds,50,2013-09-19 17:54:00
8:54 AM,82.9,64.9,54,30.04,10.0,ENE,16.1,24.2,N/A,,Partly Cloudy,60,2013-09-19 18:54:00
9:54 AM,84.9,64.9,51,30.05,10.0,NE,18.4,24.2,N/A,,Partly Cloudy,50,2013-09-19 19:54:00
10:54 AM,88.0,64.9,46,30.04,10.0,ENE,18.4,29.9,N/A,,Scattered Clouds,60,2013-09-19 20:54:00
11:54 AM,87.1,66.0,49,30.02,10.0,NE,24.2,29.9,N/A,,Scattered Clouds,40,2013-09-19 21:54:00
12:54 PM,87.1,64.9,48,30.00,10.0,ENE,17.3,27.6,N/A,,Scattered Clouds,60,2013-09-19 22:54:00
1:54 PM,88.0,66.0,48,29.99,10.0,NE,20.7,29.9,N/A,,Scattered Clouds,50,2013-09-19 23:54:00
2:54 PM,87.1,66.0,49,29.98,10.0,NE,23.0,31.1,N/A,,Scattered Clouds,50,2013-09-20 00:54:00
3:54 PM,84.9,66.9,55,29.97,10.0,ENE,24.2,34.5,N/A,,Scattered Clouds,60,2013-09-20 01:54:00
4:54 PM,82.9,66.0,56,29.98,10.0,NE,17.3,27.6,N/A,,Scattered Clouds,50,2013-09-20 02:54:00
5:54 PM,81.0,63.0,54,29.99,10.0,ENE,17.3,25.3,N/A,,Scattered Clouds,70,2013-09-20 03:54:00
6:54 PM,78.1,64.9,64,30.01,10.0,NE,13.8,-,N/A,,Scattered Clouds,50,2013-09-20 04:54:00
7:54 PM,78.1,66.9,68,30.04,10.0,NE,12.7,-,N/A,,Scattered Clouds,50,2013-09-20 05:54:00
8:54 PM,77.0,68.0,74,30.06,10.0,ENE,10.4,-,N/A,,Partly Cloudy,60,2013-09-20 06:54:00
9:54 PM,75.9,68.0,76,30.06,10.0,NE,10.4,-,N/A,,Clear,50,2013-09-20 07:54:00
10:54 PM,77.0,68.0,74,30.06,10.0,NE,12.7,-,N/A,,Clear,50,2013-09-20 08:54:00
11:54 PM,77.0,68.0,74,30.05,10.0,NE,16.1,-,N/A,,Clear,40,2013-09-20 09:54:00